Charlotte, MI

10:56 AM EST on February 20, 2018 (GMT -0500)
Charlotte

Weather History for KFPK - September, 2012

Change the Weather History Date:

Wednesday, September 5, 2012

  Actual Average (KLAN) Record (KLAN)
Temperature  
Mean Temperature 72 °F -  
Max Temperature 80 °F 77 °F 96 °F (1881)
Min Temperature 64 °F 52 °F 34 °F (1997)
Cooling Degree Days 7    
Growing Degree Days 22 (Base 50)    
Moisture  
Dew Point 68 °F    
Average Humidity 85    
Maximum Humidity 100    
Minimum Humidity 68    
Precipitation  
Precipitation 0.00 in - - ()
Sea Level Pressure  
Sea Level Pressure 29.83 in    
Wind  
Wind Speed 3 mph (South)    
Max Wind Speed 13 mph    
Max Gust Speed 17 mph    
Visibility 7 miles    
Events      
Averages and records for this station are not official NWS values.
T = Trace of Precipitation, MM = Missing Value Source: NWS Daily Summary

Daily Weather History Graph

Daily Weather History Graph

Search for Another Location

Airport or City:

Trip Planner

Search our weather history database for the weather conditions in past years. The results will help you decide how hot, cold, wet, or windy it might be!

Date:

Astronomy

Sep. 05, 2012 Rise Set
Actual Time 7:08 AM EDT 8:05 PM EDT
Civil Twilight 6:40 AM EDT 8:34 PM EDT
Nautical Twilight 6:06 AM EDT 9:08 PM EDT
Astronomical Twilight 5:30 AM EDT 9:44 PM EDT
Moon 10:26 PM EDT (9/5) 12:20 PM EDT (9/5)
Length of Visible Light 13h 54m
Length of Day
12h 56m
Waning Gibbous, 76% of the Moon is Illuminated
Sep 5
Waning Gibbous
Sep 8
Last Quarter
Sep 15
New
Sep 22
First Quarter
Sep 29
Full

Hourly Weather History & Observations

Time (EDT) Temp. Heat Index Dew Point Humidity Pressure Visibility Wind Dir Wind Speed Gust Speed Precip Events Conditions
12:05 AM 66.2 °F - 64.4 °F 94% 29.87 in 0.8 mi Calm Calm - N/A   Unknown
12:25 AM 66.2 °F - 64.4 °F 94% 29.88 in 2.5 mi Calm Calm - N/A   Clear
12:45 AM 66.2 °F - 64.4 °F 94% 29.87 in 1.0 mi Calm Calm - N/A   Unknown
1:05 AM 66.2 °F - 66.2 °F 100% 29.88 in 0.8 mi Calm Calm - N/A   Unknown
1:25 AM 64.4 °F - 64.4 °F 100% 29.88 in 1.5 mi Calm Calm - N/A   Unknown
1:45 AM 66.2 °F - 66.2 °F 100% 29.88 in 1.2 mi Calm Calm - N/A   Unknown
2:05 AM 66.2 °F - 64.4 °F 94% 29.88 in 2.0 mi Calm Calm - N/A   Clear
2:25 AM 64.4 °F - 64.4 °F 100% 29.87 in 4.0 mi Calm Calm - N/A   Clear
2:45 AM 64.4 °F - 64.4 °F 100% 29.87 in 1.2 mi Calm Calm - N/A   Unknown
3:05 AM 64.4 °F - 64.4 °F 100% 29.88 in 1.0 mi Calm Calm - N/A   Unknown
3:25 AM 64.4 °F - 64.4 °F 100% 29.88 in 0.5 mi Calm Calm - N/A   Unknown
3:45 AM 64.4 °F - 64.4 °F 100% 29.88 in 4.0 mi Calm Calm - N/A   Clear
4:05 AM 64.4 °F - 64.4 °F 100% 29.87 in 5.0 mi Calm Calm - N/A   Clear
4:25 AM 66.2 °F - 66.2 °F 100% 29.87 in 7.0 mi Calm Calm - N/A   Clear
4:45 AM 68.0 °F - 66.2 °F 94% 29.86 in 5.0 mi South 3.5 mph - N/A   Clear
5:05 AM 68.0 °F - 66.2 °F 94% 29.86 in 5.0 mi SSW 3.5 mph - N/A   Mostly Cloudy
5:25 AM 68.0 °F - 66.2 °F 94% 29.86 in 4.0 mi Calm Calm - N/A   Scattered Clouds
5:45 AM 68.0 °F - 66.2 °F 94% 29.86 in 4.0 mi South 3.5 mph - N/A   Clear
6:05 AM 68.0 °F - 66.2 °F 94% 29.86 in 4.0 mi Calm Calm - N/A   Clear
6:25 AM 68.0 °F - 66.2 °F 94% 29.86 in 4.0 mi Calm Calm - N/A   Clear
6:45 AM 68.0 °F - 66.2 °F 94% 29.86 in 4.0 mi Calm Calm - N/A   Clear
7:05 AM 66.2 °F - 66.2 °F 100% 29.86 in 1.8 mi South 3.5 mph - N/A   Unknown
7:25 AM 66.2 °F - 66.2 °F 100% 29.85 in 1.8 mi Calm Calm - N/A   Unknown
7:45 AM 68.0 °F - 66.2 °F 94% 29.86 in 2.0 mi Calm Calm - N/A   Clear
8:08 AM 67.5 °F - 66.6 °F 97% 29.86 in 1.8 mi SSE 3.5 mph - N/A   Mist
8:15 AM 67.3 °F - 66.4 °F 97% 29.86 in 1.8 mi SSE 3.5 mph - N/A   Mist
8:35 AM 68.9 °F - 68.0 °F 97% 29.87 in 2.0 mi South 6.9 mph - N/A   Mostly Cloudy
8:55 AM 70.0 °F - 69.1 °F 97% 29.86 in 3.0 mi South 6.9 mph - N/A   Scattered Clouds
9:15 AM 71.6 °F - 70.0 °F 95% 29.86 in 4.0 mi South 6.9 mph - N/A   Scattered Clouds
9:35 AM 74.3 °F - 71.6 °F 91% 29.86 in 5.0 mi South 5.8 mph - N/A   Scattered Clouds
9:55 AM 75.4 °F - 71.4 °F 87% 29.86 in 7.0 mi South 10.4 mph - N/A   Scattered Clouds
10:15 AM 77.2 °F - 70.7 °F 80% 29.86 in 10.0 mi South 10.4 mph - N/A   Clear
10:35 AM 77.9 °F - 70.5 °F 78% 29.86 in 10.0 mi SSW 11.5 mph - N/A   Clear
10:55 AM 79.7 °F - 71.2 °F 75% 29.86 in 10.0 mi South 10.4 mph - N/A   Scattered Clouds
11:15 AM 79.2 °F - 70.3 °F 74% 29.85 in 10.0 mi South 9.2 mph - N/A   Mostly Cloudy
11:35 AM 78.3 °F - 70.5 °F 77% 29.84 in 10.0 mi South 6.9 mph - N/A   Overcast
11:55 AM 78.4 °F - 70.7 °F 77% 29.84 in 10.0 mi South 8.1 mph - N/A   Overcast
12:15 PM 79.9 °F - 70.5 °F 73% 29.84 in 10.0 mi SW 6.9 mph - N/A   Mostly Cloudy
12:35 PM 78.1 °F - 70.0 °F 76% 29.83 in 10.0 mi SSW 5.8 mph - N/A   Mostly Cloudy
12:55 PM 78.1 °F - 69.3 °F 74% 29.81 in 10.0 mi SSE 8.1 mph - N/A   Scattered Clouds
1:15 PM 77.9 °F - 70.9 °F 79% 29.80 in 10.0 mi SSE 12.7 mph - N/A   Scattered Clouds
1:35 PM 77.2 °F - 70.0 °F 78% 29.80 in 10.0 mi SSE 9.2 mph - N/A   Clear
1:55 PM 77.4 °F - 68.4 °F 74% 29.81 in 10.0 mi SSE 9.2 mph 16.1 mph N/A   Clear
2:15 PM 77.9 °F - 69.4 °F 75% 29.80 in 10.0 mi SSE 9.2 mph - N/A   Scattered Clouds
2:35 PM 79.0 °F - 68.2 °F 69% 29.80 in 10.0 mi SSE 8.1 mph - N/A   Scattered Clouds
2:55 PM 79.7 °F - 69.4 °F 71% 29.80 in 10.0 mi SSE 8.1 mph - N/A   Mostly Cloudy
3:15 PM 80.8 °F 83.9 °F 69.4 °F 68% 29.79 in 10.0 mi South 12.7 mph - N/A   Scattered Clouds
3:35 PM 80.1 °F 83.2 °F 69.8 °F 71% 29.79 in 10.0 mi SSE 9.2 mph - N/A   Scattered Clouds
3:55 PM 80.2 °F 83.3 °F 69.8 °F 70% 29.79 in 10.0 mi South 10.4 mph - N/A   Scattered Clouds
4:15 PM 79.7 °F - 69.8 °F 72% 29.79 in 10.0 mi South 10.4 mph - N/A   Scattered Clouds
4:35 PM 79.7 °F - 70.2 °F 73% 29.78 in 10.0 mi South 8.1 mph - N/A   Clear
4:55 PM 79.2 °F - 69.3 °F 72% 29.77 in 10.0 mi South 10.4 mph - N/A   Clear
5:15 PM 79.5 °F - 69.8 °F 72% 29.77 in 10.0 mi SSW 10.4 mph - N/A   Clear
5:35 PM 80.1 °F 83.4 °F 70.5 °F 73% 29.77 in 10.0 mi SSW 8.1 mph - N/A   Clear
5:55 PM 79.3 °F - 69.6 °F 72% 29.78 in 10.0 mi SSW 6.9 mph - N/A   Clear
6:15 PM 79.2 °F - 68.9 °F 71% 29.79 in 10.0 mi SSW 9.2 mph 17.3 mph N/A   Clear
6:35 PM 78.8 °F - 69.1 °F 72% 29.79 in 10.0 mi SW 6.9 mph - N/A   Clear
6:55 PM 78.8 °F - 68.7 °F 71% 29.79 in 10.0 mi SSW 5.8 mph - N/A   Clear
7:15 PM 78.4 °F - 67.6 °F 69% 29.80 in 10.0 mi SSW 4.6 mph - N/A   Clear
7:35 PM 77.5 °F - 67.5 °F 71% 29.80 in 10.0 mi SSW 4.6 mph - N/A   Clear
7:55 PM 77.0 °F - 67.3 °F 72% 29.81 in 10.0 mi SSW 4.6 mph - N/A   Clear
8:15 PM 75.7 °F - 67.1 °F 74% 29.80 in 10.0 mi SSW 4.6 mph - N/A   Clear
8:35 PM 74.5 °F - 66.7 °F 77% 29.80 in 10.0 mi SSW 4.6 mph - N/A   Scattered Clouds
8:55 PM 73.0 °F - 66.4 °F 80% 29.81 in 10.0 mi SSW 3.5 mph - N/A   Scattered Clouds
9:15 PM 71.6 °F - 66.2 °F 83% 29.81 in 10.0 mi SW 3.5 mph - N/A   Clear
9:35 PM 72.5 °F - 66.9 °F 83% 29.82 in 10.0 mi SW 4.6 mph - N/A   Clear
9:55 PM 72.0 °F - 66.9 °F 84% 29.82 in 10.0 mi Calm Calm - N/A   Clear
10:15 PM 72.3 °F - 66.7 °F 83% 29.82 in 10.0 mi SW 3.5 mph - N/A   Clear
10:35 PM 70.3 °F - 66.2 °F 87% 29.82 in 10.0 mi Calm Calm - N/A   Clear
10:55 PM 68.0 °F - 65.3 °F 91% 29.82 in 10.0 mi Calm Calm - N/A   Clear
11:15 PM 68.0 °F - 66.0 °F 93% 29.82 in 10.0 mi Calm Calm - N/A   Clear
11:35 PM 68.0 °F - 65.8 °F 93% 29.82 in 7.0 mi Calm Calm - N/A   Clear
11:55 PM 66.6 °F - 65.1 °F 95% 29.82 in 5.0 mi Calm Calm - N/A   Clear